Home   Weather   42°58'N, 88°02'W   Past weeks
Flag for USA

Past Weather in 42°58'N, 88°02'W, USA — Yesterday and Last 2 Weeks

Now
37 °F

Clear.


Feels Like: 35 °F
Forecast: 48 / 31 °F
Wind: 3 mph from Southwest

Location: Milwaukee / Timmerman

Current Time: Mar 24, 2019 at 4:27:30 am

Latest Report: Mar 24, 2019 at 3:35 am


Visibility: 10 mi

Pressure: 30.14 "Hg

Humidity: 65%

Dew Point: 27 °F

Location of 42°58'N, 88°02'WLocation

Past Weather in 42°58'N, 88°02'W — Graph

°F

42°58'N, 88°02'W Temperature Yesterday

Maximum temperature yesterday: 54 °F (at 3:45 pm)
Minimum temperature yesterday: 21 °F (at 5:35 am)
Average temperature yesterday: 34 °F

High & Low Weather Summary for the Past Weeks

 TemperatureHumidityPressure
High57 °F (Mar 14, 11:45 am)93% (Mar 9, 2:15 am)30.38 "Hg (Mar 9, 2:15 am)
Low18 °F (Mar 12, 7:45 am)27% (Mar 19, 12:45 pm)29.26 "Hg (Mar 14, 2:45 pm)
Average34 °F70%30.07 "Hg
* Reported Mar 9 2:15 am — Mar 24 3:15 am, 42°58'N, 88°02'W. Weather by CustomWeather, © 2019

Note: Actual official high and low records may vary slightly from our data, if they occured in-between our weather recording intervals... More about our weather records

Advertising

42°58'N, 88°02'W Weather History for the Previous 24 Hours

Scroll right to see more
 ConditionsComfort  
Time TempWeatherWind HumidityBarometerVisibility
3:15 am
Sun, Mar 24
37 °FClear.5 mph65%30.14 "Hg10 mi
2:55 am36 °FClear.5 mph70%30.15 "Hg10 mi
2:35 am37 °FClear.No wind65%30.16 "Hg10 mi
2:15 am37 °FClear.3 mph65%30.17 "Hg10 mi
1:55 am37 °FClear.5 mph65%30.17 "Hg10 mi
1:35 am37 °FClear.6 mph70%30.17 "Hg10 mi
1:15 am37 °FClear.5 mph70%30.18 "Hg10 mi
12:55 am36 °FClear.3 mph75%30.18 "Hg10 mi
12:35 am36 °FClear.3 mph75%30.18 "Hg10 mi
12:15 am36 °FClear.3 mph70%30.18 "Hg10 mi
11:55 pm
Sat, Mar 23
36 °FClear.5 mph70%30.18 "Hg10 mi
11:35 pm34 °FClear.5 mph75%30.19 "Hg10 mi
11:15 pm36 °FClear.5 mph70%30.18 "Hg10 mi
10:55 pm36 °FClear.6 mph70%30.19 "Hg10 mi
10:35 pm36 °FClear.5 mph70%30.19 "Hg10 mi
10:15 pm37 °FClear.6 mph65%30.19 "Hg10 mi
9:55 pm37 °FClear.6 mph65%30.20 "Hg10 mi
9:35 pm37 °FClear.7 mph65%30.20 "Hg10 mi
9:15 pm37 °FClear.6 mph70%30.20 "Hg10 mi
8:55 pm39 °FClear.6 mph65%30.21 "Hg10 mi
7:45 pm45 °FClear.7 mph49%30.21 "Hg10 mi
6:45 pm48 °FSunny.9 mph40%30.20 "Hg10 mi
5:45 pm52 °FSunny.10 mph32%30.21 "Hg10 mi
4:45 pm54 °FSunny.13 mph33%30.21 "Hg10 mi
3:45 pm54 °FSunny.8 mph30%30.23 "Hg10 mi
2:45 pm52 °FSunny.8 mph30%30.24 "Hg10 mi
1:45 pm50 °FSunny.6 mph32%30.27 "Hg10 mi
12:52 pm48 °FSunny.5 mph40%30.29 "Hg10 mi
11:45 am45 °FSunny.10 mph42%30.31 "Hg10 mi
10:45 am41 °FSunny.9 mph49%30.32 "Hg10 mi
9:45 am36 °FSunny.6 mph65%30.32 "Hg10 mi
8:45 am30 °FSunny.No wind80%30.32 "Hg10 mi
7:45 am23 °FSunny.No wind86%30.32 "Hg10 mi
6:55 am23 °FSunny.No wind86%30.30 "Hg10 mi
6:35 am23 °FClear.No wind86%30.30 "Hg10 mi
6:15 am23 °FClear.No wind86%30.30 "Hg10 mi
5:55 am21 °FClear.No wind93%30.29 "Hg10 mi
5:35 am21 °FClear.No wind93%30.29 "Hg10 mi
4:55 am23 °FClear.No wind86%30.29 "Hg10 mi
4:35 am23 °FClear.No wind86%30.29 "Hg10 mi
4:15 am23 °FClear.No wind86%30.28 "Hg10 mi
Weather by CustomWeather, © 2019

See weather overview